Location: Pasadena, ca
(34.1243°N, 118.1037°W)
Time: 08:58:43
(UTC-08:00)

N. Korean satellite - Pass Details

Date: 16 November 2017
Orbit: 460 x 514 km, 97.2° (Epoch: 22 November)

Event Time Altitude Azimuth Distance (km) Brightness Sun altitude
Rises 18:05:48 0° 174° (S) 2,471 10.2 -16.2°
Reaches altitude 10° 18:07:50 10° 177° (S) 1,604 9.3 -16.6°
Maximum altitude 18:11:15 65° 260° (W) 516 6.9 -17.3°
Drops below altitude 10° 18:14:44 10° 342° (NNW) 1,634 9.3 -18.0°
Sets 18:16:49 0° 346° (NNW) 2,524 10.2 -18.5°
